Lapse_Rate
9.6 9.5 9.6 9.7 9.8 9.7 9.6 9.4 8.8 8.6 8.4 9.1 9.5 9.9 10.0 9.7 9.6 8.4 7.7 7.0 6.0 5.5 5.2 5.6 5.8 6.1 6.0 5.7 5.5 5.5 5.6 5.6 6.1 6.3 6.2 6.0 5.9 6.0
9.7 9.6 9.7 9.8 10.0 9.9 9.7 9.5 9.4 9.2 8.9 9.1 9.4 10.0 10.0 9.8 9.4 9.6 9.3 6.9 6.5 5.9 5.6 5.3 5.5 5.7 5.9 5.9 5.7 5.3 5.0 5.3 5.8 6.1 6.4 6.4 6.3 6.2
9.7 9.6 9.6 9.7 9.9 10.0 9.9 9.6 9.4 9.4 9.1 9.6 9.6 9.9 9.7 9.8 9.9 9.5 9.7 9.7 9.5 7.7 6.5 6.1 5.8 6.0 6.1 6.1 6.0 5.7 5.3 5.1 5.3 5.5 5.7 5.9 6.0 6.0
9.4 9.5 9.5 10.2 9.5 9.7 9.9 9.3 9.5 9.5 9.4 8.8 9.5 9.4 9.7 9.8 9.8 9.7 9.3 9.6 9.9 9.3 7.6 6.3 5.8 5.9 6.3 6.4 6.2 6.0 5.7 5.2 5.2 5.2 5.1 4.8 5.2 5.0
9.7 9.5 9.5 9.5 9.6 9.8 9.6 9.6 9.7 9.6 9.5 9.3 9.4 9.3 9.6 9.8 9.6 9.9 9.8 9.8 9.7 9.4 8.5 6.5 6.1 6.2 6.0 6.1 6.3 6.2 6.0 5.6 5.5 5.3 5.2 4.8 4.5 4.5
10.0 9.9 9.6 9.6 9.4 9.6 9.7 9.4 9.5 9.4 9.3 9.3 9.2 9.5 9.3 9.7 9.5 9.2 9.2 9.8 9.6 9.8 9.4 9.2 8.6 7.7 6.4 6.0 5.7 6.5 6.4 6.2 5.9 5.7 5.3 5.0 4.6 4.2
10.0 9.9 10.0 9.9 9.3 9.2 9.7 9.5 9.4 9.3 9.0 9.1 9.0 9.2 8.9 9.0 8.9 9.2 9.0 9.2 9.5 9.9 9.6 10.1 10.0 9.8 9.5 8.0 6.8 6.3 5.9 6.1 6.3 6.1 5.9 5.6 5.2 4.8
9.8 9.9 9.8 9.8 9.9 9.5 9.3 8.3 8.5 9.1 9.1 9.0 8.9 8.8 8.8 9.2 9.3 9.1 8.8 8.6 8.5 9.8 8.7 8.5 9.4 9.4 9.6 9.6 8.8 7.4 6.4 6.1 6.0 6.4 5.9 5.8 5.3 4.6
9.9 10.1 10.2 10.2 9.7 9.8 9.5 9.3 8.9 8.8 8.7 9.3 8.7 9.0 9.1 9.4 9.2 9.0 8.8 8.7 8.9 9.4 8.9 8.6 9.5 9.2 9.7 9.7 8.7 7.0 6.5 6.7 6.5 5.9 6.0 5.6 5.2 4.6
9.8 9.9 10.0 9.9 9.8 9.8 9.2 9.1 9.4 9.6 9.3 9.6 9.5 9.4 9.6 9.7 9.5 9.1 9.0 9.1 9.3 9.7 9.4 8.6 9.3 9.2 9.7 9.7 9.0 7.7 7.2 6.5 6.4 6.4 6.0 5.5 4.9 4.4
9.9 9.7 9.8 9.7 9.5 9.4 8.9 8.5 9.2 9.4 9.9 9.1 8.9 8.3 8.1 8.0 8.2 8.8 8.4 8.5 8.4 9.1 9.3 8.7 8.9 9.0 9.2 9.1 8.7 8.1 6.6 6.3 6.5 6.5 6.3 5.8 5.7 5.4
9.5 9.6 9.5 9.7 9.5 9.3 8.9 9.0 8.6 8.9 9.3 9.4 9.4 9.1 8.9 8.9 8.1 8.3 8.1 8.2 8.5 8.4 9.1 8.6 8.8 8.8 8.4 9.0 9.3 7.6 8.4 7.7 6.8 6.5 6.0 5.4 5.1 5.8
9.8 9.8 9.6 9.3 9.2 9.2 9.2 8.8 9.0 9.1 9.1 9.2 9.2 9.3 9.3 9.3 8.9 8.5 8.2 8.0 7.9 8.2 9.2 8.6 7.4 8.7 8.6 8.4 8.0 8.2 7.6 6.9 6.4 5.7 5.7 5.4 5.4 5.2
9.4 9.8 9.7 9.4 9.2 9.1 9.1 9.1 9.1 9.1 9.0 8.9 8.6 8.5 8.6 8.5 8.4 7.9 8.1 8.3 8.4 8.3 8.8 9.1 6.2 7.8 7.8 8.2 7.4 7.3 7.0 7.3 7.6 6.2 5.5 5.6 5.5 5.5
9.5 9.2 8.6 8.8 8.8 8.3 8.5 9.1 9.1 9.0 9.0 8.4 8.2 8.1 8.4 8.3 8.1 7.8 7.5 7.9 8.4 8.3 8.3 8.4 7.7 6.7 7.1 6.9 7.4 6.0 8.0 6.8 7.4 7.6 7.1 6.5 6.1 5.4
7.7 7.7 7.7 8.0 8.8 8.6 8.4 7.3 8.6 8.8 8.7 8.6 8.4 8.4 8.5 7.9 7.4 7.5 6.9 7.0 6.8 7.3 6.7 7.1 6.6 6.3 5.7 6.2 7.1 5.7 7.2 7.4 7.0 7.9 6.7 5.3 5.6 5.9
8.7 8.6 8.7 8.0 8.0 7.6 7.9 7.6 7.8 8.0 8.1 8.2 8.2 8.1 8.0 7.8 7.3 7.3 6.8 6.8 6.9 7.2 7.4 6.9 6.2 7.2 6.9 6.1 6.4 7.1 7.8 7.9 7.4 5.8 7.2 5.8 5.4 5.4
8.5 8.4 8.6 8.9 8.3 7.4 8.6 8.4 8.1 8.0 7.8 7.8 8.1 8.1 7.8 7.7 7.3 7.3 6.7 6.3 6.8 6.9 6.7 7.4 7.4 6.7 7.4 6.3 5.8 6.3 7.3 7.5 7.3 6.8 6.3 6.3 5.4 5.8
8.6 8.5 8.6 8.8 8.7 8.0 7.7 8.1 7.7 8.0 8.0 7.6 7.5 7.4 7.4 7.3 7.6 7.7 6.9 7.1 7.2 6.7 6.4 7.1 7.4 7.4 7.8 7.7 8.0 8.0 6.8 6.9 6.7 6.8 6.3 6.2 5.7 5.8
8.7 8.3 8.2 8.4 8.6 8.4 8.3 8.1 7.9 7.9 7.3 7.2 7.1 7.2 7.2 7.2 7.2 6.8 7.4 7.6 7.4 7.3 7.1 7.7 7.7 7.7 7.6 7.5 8.0 8.5 7.1 7.3 7.6 6.9 6.5 5.9 4.9 4.8
8.4 8.1 8.2 8.0 8.0 8.3 8.3 8.0 7.8 7.5 7.3 7.1 7.1 7.1 7.0 7.0 7.1 7.1 7.2 7.7 7.8 7.5 7.5 7.9 8.1 8.6 7.7 7.7 7.5 7.3 7.9 7.5 7.3 6.8 6.4 5.9 5.7 5.0
8.4 8.1 7.9 7.8 7.6 7.6 7.7 7.8 7.8 7.6 7.3 7.2 7.1 7.0 7.1 7.0 7.2 7.2 7.2 7.4 7.6 7.8 7.8 7.8 7.7 7.4 7.5 7.4 7.6 7.9 7.7 8.1 6.0 6.0 6.3 6.1 6.2 6.3
7.8 7.9 7.8 7.7 7.8 7.6 7.2 7.0 7.5 7.8 7.5 7.2 7.2 7.2 7.2 7.2 7.5 7.3 7.3 7.4 7.3 7.3 7.3 7.4 7.6 7.4 7.3 7.6 7.7 7.6 7.6 7.2 5.9 5.6 5.3 4.9 4.6 4.5
Wind_Speed
13 13 12 11 10 11 11 11 11 14 14 14 12 14 16 17 16 22 23 22 24 24 25 23 22 21 18 15 13 13 13 13 15 13 12 11 12 14
11 14 14 12 12 11 10 11 11 11 14 12 12 13 14 18 22 21 22 26 26 27 25 23 21 21 20 18 16 14 14 15 15 16 16 15 15 14
16 16 17 17 12 12 11 11 11 11 12 13 12 13 15 14 16 23 21 20 21 24 25 24 21 20 20 20 19 16 15 16 16 16 15 14 14 15
18 17 18 12 16 15 11 14 12 13 11 16 16 12 13 14 14 16 14 21 20 24 25 21 22 21 20 20 20 19 16 15 16 14 14 14 14 16
18 18 18 18 16 13 14 12 11 11 11 11 13 12 11 11 12 13 15 14 18 21 22 23 23 20 18 18 20 21 19 15 14 14 14 15 15 16
17 17 19 18 19 17 14 14 13 11 12 11 11 12 11 12 10 11 11 11 11 13 15 16 18 18 18 18 17 18 18 17 14 13 13 13 14 16
18 18 17 18 22 21 13 15 14 12 11 11 11 11 11 11 11 10 10 10 12 10 11 10 10 10 10 12 12 12 14 15 14 14 15 14 16 16
18 18 18 20 19 26 27 29 22 15 15 12 12 13 16 12 11 10 9 9 10 9 7 8 7 8 9 12 11 11 12 13 14 14 16 16 17 17
19 17 16 13 18 18 22 26 24 24 23 16 16 16 16 15 13 13 12 11 11 10 8 8 9 10 9 13 13 13 16 17 16 15 17 17 16 18
18 19 18 18 18 18 17 18 17 16 15 12 14 16 15 15 14 13 13 13 11 10 10 10 9 9 9 10 16 15 17 17 17 17 17 16 16 18
17 18 17 18 24 25 17 17 17 15 14 19 21 24 25 25 20 10 10 10 10 10 9 8 8 8 8 9 10 11 6 11 14 15 16 15 16 17
16 17 22 20 25 25 18 16 16 15 14 15 14 15 18 17 22 16 11 10 8 8 8 7 7 3 4 5 4 5 5 8 7 9 9 7 8 5
12 12 12 23 24 25 25 16 17 15 16 13 12 10 11 11 9 10 12 10 8 9 6 5 3 5 5 7 6 6 7 4 2 4 7 8 7 7
15 12 14 23 24 25 21 25 26 22 12 11 10 10 9 9 8 9 11 10 8 11 8 8 3 5 5 7 8 5 7 7 4 4 4 7 10 10
13 18 27 28 29 23 26 27 27 12 12 11 10 9 8 8 8 5 5 7 10 9 9 8 6 5 6 7 9 8 8 5 7 6 6 3 3 2
15 14 19 23 23 20 17 14 11 10 10 10 9 8 7 7 6 5 6 6 7 7 7 10 8 7 7 8 8 11 9 7 5 7 6 3 3 4
18 12 10 9 11 9 9 10 9 8 9 9 9 9 8 7 7 6 6 6 7 7 6 5 8 10 7 8 8 10 9 8 7 8 10 7 5 5
12 10 10 10 9 8 8 8 8 11 8 8 9 8 8 7 7 6 7 8 8 6 5 6 6 6 6 9 17 10 10 10 8 8 8 8 7 5
8 9 10 10 9 8 8 8 9 7 8 7 7 7 7 7 9 7 6 7 7 7 6 6 6 7 8 10 7 18 9 7 8 7 8 9 6 5
8 8 9 9 9 9 8 7 7 7 6 6 7 7 7 8 7 7 8 9 8 7 7 7 7 7 9 10 9 7 16 7 7 8 7 5 3 1
9 9 9 9 9 9 8 8 8 8 7 6 7 7 6 6 7 7 8 13 13 8 9 8 7 15 8 6 8 10 9 19 15 9 4 4 3 3
9 9 9 9 9 9 8 8 8 8 8 7 8 7 6 6 7 7 7 7 8 8 8 6 5 6 7 9 10 11 7 6 8 18 11 7 2 4
10 9 9 9 9 8 8 8 8 8 8 7 6 6 6 6 6 7 7 7 7 7 7 7 6 7 8 8 11 8 11 8 4 4 3 10 6 1
Wind_Direction
283 277 274 277 277 278 280 282 283 292 288 295 295 290 286 285 297 305 299 301 303 297 292 287 281 277 276 276 279 280 281 279 274 266 257 252 249 248
286 282 280 278 278 277 276 277 274 280 287 288 287 291 287 287 294 291 288 291 286 284 283 283 280 270 269 270 268 270 274 272 262 265 264 260 256 256
290 286 282 279 276 275 272 267 269 273 278 286 285 285 282 277 282 289 290 284 281 275 276 274 275 275 269 267 261 262 267 268 261 259 265 268 268 265
285 283 280 280 276 272 263 264 264 271 274 280 285 285 285 283 276 280 284 281 277 277 273 273 276 272 265 263 258 253 255 256 254 256 272 274 271 272
284 282 281 281 277 270 264 263 266 268 271 272 279 284 285 281 277 272 280 279 273 270 266 267 266 268 267 260 255 251 250 246 240 242 249 262 268 273
285 282 281 280 277 272 265 263 266 267 269 268 270 279 280 280 276 276 277 282 284 279 281 271 278 277 274 270 268 253 245 244 247 243 239 250 262 270
285 280 279 276 276 272 273 270 264 261 265 268 265 272 275 278 272 275 278 281 284 284 276 269 269 265 265 238 260 255 247 246 241 247 251 251 260 264
287 284 287 283 275 274 268 263 256 262 266 265 265 265 271 274 275 270 272 276 281 282 287 292 278 276 278 273 276 287 269 253 251 253 252 254 257 262
284 282 285 281 281 278 273 264 261 261 262 265 264 263 264 266 269 271 267 265 269 278 282 281 278 277 278 274 265 265 270 270 257 251 251 255 254 259
283 285 283 284 282 283 276 268 267 265 263 261 259 263 262 265 260 263 266 272 273 269 264 268 279 279 284 277 271 273 273 267 261 256 252 249 253 263
286 284 284 285 284 281 275 271 270 266 261 257 258 265 269 268 264 265 252 253 257 258 251 254 275 285 288 284 279 266 302 298 281 266 257 254 260 261
287 285 282 280 283 281 275 274 271 269 268 269 265 250 254 260 257 245 244 240 239 265 264 262 263 305 298 284 294 330 299 313 314 307 279 281 288 279
290 288 282 282 283 282 279 277 273 274 272 269 268 265 262 261 261 248 235 232 234 248 250 230 247 265 263 289 289 301 314 291 283 289 295 292 293 283
285 287 287 286 283 276 277 275 274 273 269 264 262 259 259 258 254 249 240 226 227 237 245 231 193 242 269 279 283 301 305 301 290 254 248 260 271 277
280 277 281 281 280 277 275 272 272 267 268 264 259 256 251 251 258 266 245 256 245 238 236 238 245 229 250 262 275 281 292 298 306 277 269 259 271 282
293 288 287 282 275 270 271 266 274 264 262 259 258 258 251 244 245 238 233 217 214 231 217 223 235 238 252 251 257 269 268 266 297 292 277 254 252 251
308 294 282 277 272 263 257 255 251 257 252 257 259 256 249 240 237 238 232 235 235 235 229 206 235 241 246 249 252 253 261 261 259 273 278 265 251 242
307 304 301 296 290 279 269 260 250 251 245 246 251 253 251 244 240 233 234 231 231 231 253 260 232 230 246 252 230 253 260 270 273 261 262 259 265 245
323 315 313 306 311 297 286 273 263 258 253 246 246 249 249 245 248 240 219 226 219 227 230 248 235 233 254 259 258 213 242 253 265 254 251 247 250 256
324 315 311 308 308 303 301 289 276 267 252 245 245 246 247 249 241 236 237 227 219 218 219 222 223 230 242 255 274 269 212 245 252 260 257 245 249 246
333 326 320 313 303 299 299 297 288 280 263 247 242 240 242 235 237 235 229 224 225 226 230 236 234 238 237 245 254 259 250 229 232 248 246 228 222 202
334 329 325 319 314 302 292 293 293 289 269 261 247 232 232 236 239 239 234 235 236 238 243 249 234 227 234 236 249 256 258 261 239 241 221 215 198 226
334 330 326 325 323 316 303 290 288 281 289 268 249 243 233 232 235 244 249 243 243 242 233 240 242 226 231 242 246 255 260 250 201 196 208 205 196 159